Tracking 29892 objects as of 21-Nov-2024
HD Live streaming from Space Station
objects crossing your sky now

COSMOS 2251 DEB

Track COSMOS 2251 DEB now!
10-day predictions


NORAD ID: 36384
Int'l Code: 1993-036AZM
Perigee: 494.3 km
Apogee: 523.0 km
Inclination: 74.0 °
Period: 94.6 minutes
Semi major axis: 6879 km
RCS: 0.0042 m2 (small)
Launch date: June 16, 1993
Source: Commonwealth of Independent States (former USSR) (CIS)
Launch site: PLESETSK MISSILE AND SPACE COMPLEX (PKMTR)

Note: This is SATELLITE DEBRIS
Your satellite tracking list
Your tracking list is empty




NASA's NSSDC Master Catalog

Two Line Element Set (TLE):
1 36384U 93036AZM 24324.45420017  .00209291  00000-0  90078-2 0  9992
2 36384  74.0041  25.5671 0020825 334.2905  25.7256 15.21431581814169
Source of the keplerian elements: AFSPC